{"data":{"norad_id":67007,"epoch":"2026-05-24T16:25:38.942400Z","epoch_age_seconds":101683,"freshness":"FRESH","line1":"1 67007U 25293E   26144.68447850  .00002671  00000+0  23155-3 0  9994","line2":"2 67007  70.0006 262.7417 0002912 271.0044  89.0782 14.98338254 26274","mean_motion":14.98338254,"eccentricity":0.0002912,"inclination_deg":70.0006,"raan_deg":262.7417,"arg_perigee_deg":271.0044,"mean_anomaly_deg":89.0782,"bstar":0.00023155,"rev_number":2627,"period_min":96.106469694393,"perigee_km":570.00647751042,"apogee_km":574.05425498452,"semimajor_km":6950.1673662475,"source":"CELESTRAK","updated_at":"2026-05-25T13:38:21.430033Z"}}